Location: Isola Pescaroli
(45.0500°N, 10.1667°E)
Time: 16:10:24
(UTC+00:00)

SL-16 R/B - Pass Details

Date: 03 March 2021
Orbit: 842 x 846 km, 71.0° (Epoch: 11 April)

Event Time Altitude Azimuth Distance (km) Brightness Sun altitude
Rises 17:46:13 0° 201° (SSW) 3,387 5.7 -7.3°
Reaches altitude 10° 17:48:38 10° 201° (SSW) 2,457 4.9 -7.7°
Maximum altitude 17:54:17 83° 114° (ESE) 856 2.2 -8.7°
Drops below altitude 10° 17:59:59 10° 27° (NNE) 2,475 4.4 -9.7°
Sets 18:02:26 0° 27° (NNE) 3,415 5.1 -10.1°
